Wetterdaten: aktuell Mittwoch, 02.09.2026 19:58
Datum Zeit Temp. A. Feuchte A. Luftdruck Regen Wind Richtung Richtung Taupunkt Windchill
02.09.2026 19:58 22,1 °C 27 % 1013,0 hPa 0,0 l/m² 4,6 km/h (1 Bft) NW±22.5° 325 ° 2,2 °C 22,1 °C
02.09.2026 19:56 22,2 °C 27 % 1013,0 hPa 0,0 l/m² 4,6 km/h (1 Bft) NW±22.5° 325 ° 2,3 °C 22,2 °C
02.09.2026 19:54 22,2 °C 27 % 1013,0 hPa 0,0 l/m² 4,7 km/h (1 Bft) N±22.5° 360 ° 2,3 °C 22,2 °C
02.09.2026 19:53 22,3 °C 27 % 1013,0 hPa 0,0 l/m² 9,7 km/h (2 Bft) N-NW±45° 330 ° 2,4 °C 21,3 °C
02.09.2026 19:51 22,4 °C 26 % 1013,0 hPa 0,0 l/m² 9,7 km/h (2 Bft) N-NW±45° 330 ° 2,0 °C 21,4 °C
02.09.2026 19:49 22,4 °C 26 % 1013,0 hPa 0,0 l/m² 9,7 km/h (2 Bft) N-NW±45° 330 ° 2,0 °C 21,4 °C
02.09.2026 19:47 22,4 °C 27 % 1013,0 hPa 0,0 l/m² 5,9 km/h (2 Bft) N 355 ° 2,5 °C 22,4 °C
02.09.2026 19:45 22,6 °C 26 % 1013,0 hPa 0,0 l/m² 1,3 km/h (1 Bft) N 10 ° 2,1 °C 22,6 °C
02.09.2026 19:43 22,6 °C 26 % 1013,0 hPa 0,0 l/m² 4,4 km/h (1 Bft) N-NO 15 ° 2,1 °C 22,6 °C
02.09.2026 19:41 22,6 °C 25 % 1013,0 hPa 0,0 l/m² 4,4 km/h (1 Bft) N-NO 15 ° 1,6 °C 22,6 °C
02.09.2026 19:39 22,8 °C 25 % 1013,0 hPa 0,0 l/m² 4,6 km/h (1 Bft) N-NO±22.5° 15 ° 1,7 °C 22,8 °C
02.09.2026 19:37 22,8 °C 25 % 1013,0 hPa 0,0 l/m² 4,9 km/h (1 Bft) N 360 ° 1,7 °C 22,8 °C
02.09.2026 19:35 22,8 °C 24 % 1013,0 hPa 0,0 l/m² 4,9 km/h (1 Bft) N 360 ° 1,2 °C 22,8 °C
02.09.2026 19:33 22,9 °C 25 % 1013,0 hPa 0,0 l/m² 14,1 km/h (3 Bft) N±22.5° 360 ° 1,8 °C 20,9 °C
02.09.2026 19:31 22,9 °C 25 % 1013,0 hPa 0,0 l/m² 5,1 km/h (1 Bft) N±22.5° 350 ° 1,8 °C 22,9 °C
02.09.2026 19:29 22,9 °C 25 % 1013,0 hPa 0,0 l/m² 10,8 km/h (2 Bft) N±67.5° 355 ° 1,8 °C 21,6 °C
02.09.2026 19:27 23,0 °C 25 % 1013,0 hPa 0,0 l/m² 10,8 km/h (2 Bft) N±67.5° 355 ° 1,9 °C 21,8 °C
02.09.2026 19:24 23,0 °C 25 % 1013,0 hPa 0,0 l/m² 3,8 km/h (1 Bft) N±22.5° 360 ° 1,9 °C 23,0 °C
02.09.2026 19:22 23,2 °C 24 % 1012,9 hPa 0,0 l/m² 6,3 km/h (2 Bft) N±22.5° 350 ° 1,5 °C 23,2 °C
02.09.2026 19:20 23,5 °C 24 % 1012,9 hPa 0,0 l/m² 12,2 km/h (2 Bft) NW±67.5° 325 ° 1,8 °C 22,0 °C
02.09.2026 19:18 23,5 °C 24 % 1012,9 hPa 0,0 l/m² 12,2 km/h (2 Bft) NW±67.5° 325 ° 1,8 °C 22,0 °C
02.09.2026 19:16 23,5 °C 24 % 1012,9 hPa 0,0 l/m² 5,9 km/h (2 Bft) N-NW 345 ° 1,8 °C 23,5 °C
02.09.2026 19:14 23,4 °C 23 % 1012,9 hPa 0,0 l/m² 11,1 km/h (2 Bft) N-NW±45° 345 ° 1,1 °C 22,1 °C
02.09.2026 19:13 23,7 °C 23 % 1011,9 hPa 0,0 l/m² 11,1 km/h (2 Bft) N-NW±45° 345 ° 1,3 °C 22,5 °C
02.09.2026 19:11 23,7 °C 23 % 1011,9 hPa 0,0 l/m² 6,9 km/h (2 Bft) N-NW±45° 330 ° 1,3 °C 23,6 °C
02.09.2026 19:09 23,8 °C 23 % 1011,9 hPa 0,0 l/m² 7,6 km/h (2 Bft) N-NW±22.5° 345 ° 1,4 °C 23,5 °C
02.09.2026 19:07 23,8 °C 22 % 1011,9 hPa 0,0 l/m² 13,3 km/h (3 Bft) N±22.5° 350 ° 0,8 °C 22,2 °C
02.09.2026 19:05 23,8 °C 22 % 1011,9 hPa 0,0 l/m² 13,3 km/h (3 Bft) N±22.5° 350 ° 0,8 °C 22,2 °C
02.09.2026 19:03 24,2 °C 22 % 1011,9 hPa 0,0 l/m² 11,8 km/h (2 Bft) N-NW±67.5° 330 ° 1,1 °C 22,9 °C
02.09.2026 19:01 24,2 °C 21 % 1011,9 hPa 0,0 l/m² 4,4 km/h (1 Bft) N 355 ° 0,5 °C 24,2 °C
02.09.2026 18:59 24,2 °C 21 % 1011,9 hPa 0,0 l/m² 0,0 km/h (0 Bft) N 355 ° 0,5 °C 24,2 °C
02.09.2026 18:57 24,3 °C 20 % 1011,9 hPa 0,0 l/m² 0,0 km/h (0 Bft) N 355 ° -0,1 °C 24,3 °C
02.09.2026 18:55 24,3 °C 20 % 1011,9 hPa 0,0 l/m² 4,1 km/h (1 Bft) N 350 ° -0,1 °C 24,3 °C
02.09.2026 18:53 24,3 °C 20 % 1011,9 hPa 0,0 l/m² 1,5 km/h (1 Bft) N-NW 340 ° -0,1 °C 24,3 °C
02.09.2026 18:51 24,3 °C 20 % 1011,9 hPa 0,0 l/m² 1,5 km/h (1 Bft) N-NW 340 ° -0,1 °C 24,3 °C
02.09.2026 18:49 24,4 °C 20 % 1011,9 hPa 0,0 l/m² 7,4 km/h (2 Bft) NW±22.5° 315 ° -0,0 °C 24,1 °C
02.09.2026 18:47 24,4 °C 20 % 1011,9 hPa 0,0 l/m² 5,1 km/h (1 Bft) N-NW±45° 340 ° -0,0 °C 24,4 °C
02.09.2026 18:44 24,4 °C 20 % 1011,9 hPa 0,0 l/m² 6,7 km/h (2 Bft) W±67.5° 280 ° -0,0 °C 24,3 °C
02.09.2026 18:42 24,4 °C 20 % 1011,9 hPa 0,0 l/m² 6,7 km/h (2 Bft) W±67.5° 280 ° -0,0 °C 24,3 °C
02.09.2026 18:40 24,4 °C 20 % 1011,9 hPa 0,0 l/m² 6,6 km/h (2 Bft) NW 320 ° -0,0 °C 24,4 °C
02.09.2026 18:38 24,4 °C 20 % 1011,9 hPa 0,0 l/m² 1,8 km/h (1 Bft) NW±22.5° 320 ° -0,0 °C 24,4 °C
_ Min-Zeit 07:36 14:55 15:27 - 00:01 - - 18:51 07:36
Minimum _ 13,8 °C 20 % 1011,8 hPa - 0,0 km/h (0 Bft) - - -0,1 °C 13,8 °C
_ Max-Zeit 15:22 07:53 07:36 00:01 14:49 - - 10:24 15:22
Maximum _ 26,0 °C 81 % 1014,4 hPa 0,0 l/m² 15,8 km/h
W (3 Bft)
- - 12,1 °C 26,0 °C
Durchschnitt _ 19,5 °C 51 % 1013,3 hPa #0,0 l/m² 2,6 km/h (1 Bft) NW - 7,3 °C 19,4 °C